• In Uzbekistan
  • List of Countries
  • For 7 days
  • Water Temperature
  • Satellite Maps
  • Weather Map
  • Weather Widgets
  • user-avatar
    Login

    Hourly Weather Kitzbuhel

    Today, 25 September, Tuesday

    Time Temperature Precipitation Wind Pressure Humidity
    00:00 +2°C° 0 mm 2 mps 686 mmHg 88%
    01:00 +2°C° 0 mm 2 mps 687 mmHg 88%
    02:00 +2°C° 0 mm 2 mps 687 mmHg 87%
    03:00 +2°C° 0 mm 2 mps 687 mmHg 87%
    04:00 +3°C° 0 mm 1 mps 687 mmHg 87%
    05:00 +3°C° 0 mm 1 mps 687 mmHg 85%
    06:00 +4°C° 0 mm 1 mps 688 mmHg 84%
    07:00 +4°C° 0 mm 1 mps 688 mmHg 83%
    08:00 +6°C° 0 mm 1 mps 688 mmHg 75%
    09:00 +6°C° 0 mm 2 mps 688 mmHg 66%
    10:00 +8°C° 0 mm 2 mps 688 mmHg 58%
    11:00 +9°C° 0 mm 2 mps 688 mmHg 54%
    12:00 +10°C° 0 mm 2 mps 688 mmHg 50%
    13:00 +12°C° 0 mm 2 mps 688 mmHg 46%
    14:00 +10°C° 0 mm 2 mps 688 mmHg 48%
    15:00 +10°C° 0 mm 2 mps 688 mmHg 49%
    16:00 +10°C° 0 mm 2 mps 688 mmHg 51%
    17:00 +8°C° 0 mm 2 mps 688 mmHg 61%
    18:00 +6°C° 0 mm 1 mps 688 mmHg 71%
    19:00 +4°C° 0 mm 1 mps 688 mmHg 81%
    20:00 +4°C° 0 mm 1 mps 688 mmHg 80%
    21:00 +3°C° 0 mm 1 mps 688 mmHg 79%
    22:00 +3°C° 0 mm 1 mps 688 mmHg 77%
    23:00 +3°C° 0 mm 1 mps 689 mmHg 74%

    Tomorrow, 26 September, Wednesday

    Time Temperature Precipitation Wind Pressure Humidity
    00:00 +3°C° 0 mm 1 mps 689 mmHg 70%
    01:00 +3°C° 0 mm 1 mps 689 mmHg 67%
    02:00 +3°C° 0 mm 1 mps 688 mmHg 64%
    03:00 +3°C° 0 mm 1 mps 688 mmHg 61%
    04:00 +3°C° 0 mm 1 mps 688 mmHg 59%
    05:00 +4°C° 0 mm 1 mps 688 mmHg 57%
    06:00 +4°C° 0 mm 1 mps 688 mmHg 54%
    07:00 +5°C° 0 mm 1 mps 689 mmHg 52%
    08:00 +9°C° 0 mm 1 mps 689 mmHg 45%
    09:00 +12°C° 0 mm 1 mps 690 mmHg 38%
    10:00 +15°C° 0 mm 1 mps 690 mmHg 31%
    11:00 +16°C° 0 mm 1 mps 690 mmHg 30%
    12:00 +18°C° 0 mm 1 mps 690 mmHg 29%
    13:00 +20°C° 0 mm 1 mps 690 mmHg 29%
    14:00 +19°C° 0 mm 1 mps 689 mmHg 34%
    15:00 +18°C° 0 mm 1 mps 689 mmHg 40%
    16:00 +18°C° 0 mm 1 mps 688 mmHg 46%
    17:00 +14°C° 0 mm 1 mps 688 mmHg 55%
    18:00 +11°C° 0 mm 1 mps 688 mmHg 64%
    19:00 +8°C° 0 mm 1 mps 687 mmHg 73%
    20:00 +8°C° 0 mm 1 mps 688 mmHg 68%
    21:00 +8°C° 0 mm 1 mps 688 mmHg 63%
    22:00 +8°C° 0 mm 1 mps 688 mmHg 58%
    23:00 +8°C° 0 mm 1 mps 688 mmHg 55%

    Day after tomorrow, 27 September, Thursday

    Time Temperature Precipitation Wind Pressure Humidity
    00:00 +8°C° 0 mm 1 mps 688 mmHg 51%
    01:00 +8°C° 0 mm 1 mps 688 mmHg 48%
    02:00 +8°C° 0 mm 1 mps 687 mmHg 47%
    03:00 +8°C° 0 mm 1 mps 687 mmHg 46%
    04:00 +8°C° 0 mm 1 mps 687 mmHg 44%
    05:00 +8°C° 0 mm 1 mps 687 mmHg 46%
    06:00 +9°C° 0 mm 1 mps 687 mmHg 47%
    07:00 +9°C° 0 mm 1 mps 687 mmHg 49%
    08:00 +12°C° 0 mm 1 mps 687 mmHg 44%
    09:00 +15°C° 0 mm 1 mps 688 mmHg 40%
    10:00 +20°C° 0 mm 1 mps 688 mmHg 35%
    11:00 +20°C° 0 mm 1 mps 688 mmHg 34%
    12:00 +21°C° 0 mm 1 mps 688 mmHg 34%
    13:00 +22°C° 0 mm 1 mps 688 mmHg 33%
    14:00 +22°C° 0 mm 1 mps 687 mmHg 39%
    15:00 +21°C° 0 mm 1 mps 687 mmHg 44%
    16:00 +20°C° 0 mm 1 mps 686 mmHg 50%
    17:00 +16°C° 0 mm 1 mps 685 mmHg 59%
    18:00 +13°C° 0 mm 1 mps 685 mmHg 69%
    19:00 +10°C° 0 mm 1 mps 684 mmHg 78%
    20:00 +10°C° 0 mm 1 mps 684 mmHg 76%
    21:00 +10°C° 0 mm 1 mps 684 mmHg 75%
    22:00 +10°C° 0 mm 1 mps 684 mmHg 73%
    23:00 +10°C° 0 mm 1 mps 683 mmHg 72%

    28 September, Friday

    Time Temperature Precipitation Wind Pressure Humidity
    00:00 +10°C° 0 mm 1 mps 683 mmHg 70%
    01:00 +9°C° 0 mm 1 mps 683 mmHg 69%
    02:00 +9°C° 0 mm 1 mps 682 mmHg 67%
    03:00 +9°C° 0 mm 1 mps 682 mmHg 66%
    04:00 +9°C° 0 mm 1 mps 681 mmHg 64%
    05:00 +9°C° 0 mm 1 mps 681 mmHg 63%
    06:00 +10°C° 0 mm 1 mps 681 mmHg 62%
    07:00 +10°C° 0 mm 1 mps 681 mmHg 61%
    08:00 +13°C° 0 mm 1 mps 682 mmHg 55%
    09:00 +16°C° 0 mm 1 mps 682 mmHg 50%
    10:00 +19°C° 0 mm 1 mps 683 mmHg 44%
    11:00 +20°C° 0 mm 1 mps 683 mmHg 44%
    12:00 +20°C° 0 mm 2 mps 682 mmHg 44%
    13:00 +21°C° 0 mm 2 mps 682 mmHg 43%
    14:00 +20°C° 0 mm 2 mps 682 mmHg 49%
    15:00 +19°C° 0 mm 2 mps 681 mmHg 54%
    16:00 +19°C° 0 mm 2 mps 681 mmHg 59%
    17:00 +16°C° 0 mm 1 mps 680 mmHg 70%
    18:00 +14°C° 0 mm 1 mps 680 mmHg 81%
    19:00 +11°C° 0 mm 1 mps 680 mmHg 92%
    20:00 +11°C° 0 mm 1 mps 680 mmHg 93%
    21:00 +11°C° 0 mm 1 mps 680 mmHg 94%
    22:00 +11°C° 0 mm 1 mps 680 mmHg 95%
    23:00 +11°C° 0 mm 1 mps 680 mmHg 95%

    29 September, Saturday

    Time Temperature Precipitation Wind Pressure Humidity
    00:00 +11°C° 0 mm 1 mps 680 mmHg 95%
    01:00 +10°C° 0 mm 1 mps 680 mmHg 96%
    02:00 +10°C° 0 mm 1 mps 680 mmHg 96%
    03:00 +10°C° 0 mm 1 mps 680 mmHg 96%
    04:00 +10°C° 0 mm 1 mps 680 mmHg 97%
    05:00 +10°C° 0 mm 1 mps 680 mmHg 96%
    06:00 +10°C° 0 mm 1 mps 680 mmHg 95%
    07:00 +10°C° 0 mm 1 mps 680 mmHg 95%
    08:00 +11°C° 0 mm 1 mps 681 mmHg 90%
    09:00 +12°C° 0 mm 1 mps 681 mmHg 85%
    10:00 +12°C° 0 mm 1 mps 681 mmHg 80%
    11:00 +12°C° 0.1 mm 1 mps 681 mmHg 81%
    12:00 +12°C° 0.1 mm 2 mps 681 mmHg 81%
    13:00 +13°C° 0.1 mm 2 mps 681 mmHg 81%
    14:00 +13°C° 0.1 mm 2 mps 680 mmHg 82%
    15:00 +13°C° 0.1 mm 2 mps 680 mmHg 82%
    16:00 +13°C° 0.1 mm 2 mps 680 mmHg 82%
    17:00 +10°C° 0 mm 2 mps 680 mmHg 87%
    18:00 +10°C° 0 mm 1 mps 680 mmHg 92%
    19:00 +9°C° 0 mm 1 mps 680 mmHg 96%
    20:00 +9°C° 0 mm 1 mps 680 mmHg 96%
    21:00 +9°C° 0 mm 1 mps 681 mmHg 96%
    22:00 +8°C° 0 mm 1 mps 681 mmHg 97%
    23:00 +8°C° 0 mm 1 mps 680 mmHg 97%

    30 September, Sunday

    Time Temperature Precipitation Wind Pressure Humidity
    00:00 +7°C° 0 mm 1 mps 680 mmHg 97%
    01:00 +7°C° 0 mm 1 mps 680 mmHg 97%
    02:00 +7°C° 0 mm 1 mps 680 mmHg 96%
    03:00 +7°C° 0 mm 1 mps 679 mmHg 96%
    04:00 +7°C° 0 mm 1 mps 679 mmHg 96%
    05:00 +7°C° 0 mm 1 mps 679 mmHg 95%
    06:00 +7°C° 0 mm 1 mps 679 mmHg 94%
    07:00 +8°C° 0 mm 1 mps 679 mmHg 94%
    08:00 +10°C° 0 mm 1 mps 680 mmHg 85%
    09:00 +13°C° 0 mm 1 mps 680 mmHg 76%
    10:00 +15°C° 0 mm 1 mps 681 mmHg 66%
    11:00 +16°C° 0 mm 1 mps 681 mmHg 63%
    12:00 +18°C° 0 mm 1 mps 680 mmHg 59%
    13:00 +18°C° 0 mm 1 mps 680 mmHg 55%
    14:00 +18°C° 0 mm 1 mps 680 mmHg 60%
    15:00 +16°C° 0 mm 2 mps 680 mmHg 65%
    16:00 +15°C° 0 mm 2 mps 680 mmHg 70%
    17:00 +14°C° 0 mm 1 mps 680 mmHg 78%
    18:00 +12°C° 0 mm 1 mps 680 mmHg 86%
    19:00 +10°C° 0 mm 1 mps 680 mmHg 94%
    20:00 +10°C° 0 mm 1 mps 680 mmHg 94%
    21:00 +10°C° 0 mm 1 mps 681 mmHg 95%
    22:00 +10°C° 0 mm 1 mps 681 mmHg 95%
    23:00 +10°C° 0 mm 1 mps 681 mmHg 95%
    Show more